Regional Weather Roundup
Issued by NWS Midland/Odessa, TX

Skip options and go directly to product.
Home | Oldest Version | Previous Version | Current Version | All | Text Only | Save Text | Print | Product List | Glossary On

Skip product version selection by date and time.   
780
ASUS44 KMAF 250510
RWRMAF
MIDLAND AREA WEATHER ROUNDUP
NATIONAL WEATHER SERVICE MIDLAND TX
1200 AM CDT SAT OCT 25 2014

...IN SOUTHWEST TEXAS AND SOUTHEAST NEW MEXICO...

CITY           SKY/WX    TMP DP  RH WIND       PRES   REMARKS
ALPINE         CLEAR     60  51  73 SW5       30.32S
ANDREWS        FAIR      67  50  53 S10       30.18S
ARTESIA        NOT AVBL
BIG SPRING     CLEAR     65  54  67 SE9       30.19R
CARLSBAD       CLEAR     59  53  80 SW9       30.16S
DRYDEN           N/A     67  62  84 N7        30.16S
FORT STOCKTON  CLEAR     67  58  72 S13       30.18S
GUAD PASS      CLEAR     65  46  50 W10       30.32S
HOBBS          CLEAR     63  48  59 S7        30.20S
MARFA          CLEAR     54  50  87 N3        30.31S
MIDLAND AIRPK  CLEAR     71  54  55 S10       30.18S
MIDLAND INTL   CLEAR     69  53  56 S10       30.17S
ODESSA         CLEAR     68  52  56 S8        30.18S
PECOS          CLEAR     62  53  72 SW5       30.15S
PRESIDIO       FAIR      69  52  54 N7        30.17R
SEMINOLE       CLEAR     62  51  68 SW6       30.18S
SNYDER         CLEAR     67  54  62 S10       30.16R
WINK           CLEAR     66  53  63 SE8       30.14S
$$
...OTHER STATIONS IN TEXAS...

CITY           SKY/WX    TMP DP  RH WIND       PRES   REMARKS
ABILENE        CLEAR     73  56  54 S12       30.13S
AMARILLO       CLEAR     60  46  59 S8        30.16R
AUSTIN         CLEAR     61  58  90 SW3       30.14S
BROWNSVILLE    CLEAR     69  66  90 N3        30.14S
CORPUS CHRISTI CLEAR     67  62  84 S3        30.14R
DALLAS FTW     PTCLDY    69  60  73 S8        30.09S
DEL RIO        CLEAR     71  63  75 E3        30.13R
EL PASO        CLEAR     66  49  54 CALM      30.20S
HOUSTON INT    CLEAR     62  59  90 CALM      30.15S
LUBBOCK        CLEAR     61  51  70 CALM      30.17R
SAN ANGELO     CLEAR     68  56  65 S8        30.15R
SAN ANTONIO    CLEAR     70  58  65 SE5       30.16R
WACO           CLEAR     69  60  73 S9        30.13R
WICHITA FALLS  NOT AVBL
$$
...OTHER LOCATIONS IN NEW MEXICO...

CITY           SKY/WX    TMP DP  RH WIND       PRES   REMARKS
ALAMAGORDO     NOT AVBL
ALBUQUERQUE    CLEAR     56  37  49 E6        30.29R
CANNON AFB     CLEAR     59  45  59 W8        30.21S
CLOVIS         CLEAR     57  41  54 W9        30.23S
HOLLOMAN AFB   PTCLDY    59  47  64 E5        30.21S
ROSWELL        CLEAR     61  55  81 W6        30.18R
RUIDOSO        CLEAR     54  41  62 SW8       30.40R
SANTA FE       CLEAR     52  23  32 NE6       30.32S
TRUTH OR CONSE CLEAR     64  45  49 W5        30.25R
TUCUMCARI      CLEAR     65  42  43 SW12      30.15S
$$

USA.gov is the U.S. government's official web portal to all federal, state and local government web resources and services.